Theta_e
313 313 313 313 313 313 312 312 310 310 310 308 307 307 306 306 306 307 306 307 307 307 307 307 307 307 308 308 308 309 309 311 313 319 323 318 313 313 312 312 314 313 316 316 315 315 315 315 314 314 316 317 321 322 322 322 329 341 339 325 320 322 318 317 320 322 323 320 319 317 318 319 317 318 317 315 317 315 314 313 312 311 311 311 311 312 313 315
311 311 311 311 312 312 311 311 310 310 311 309 308 307 307 306 306 307 307 307 307 307 307 307 307 308 308 308 309 310 310 312 317 321 322 316 312 312 313 313 314 314 315 315 314 315 315 315 314 314 316 319 320 321 322 323 327 332 334 326 320 321 318 317 319 319 320 319 319 318 319 319 318 318 316 316 316 315 317 314 311 312 312 311 311 312 313 313
310 310 311 311 311 311 311 312 311 310 312 311 308 307 307 307 307 307 307 308 308 308 307 307 307 308 308 309 310 311 311 316 322 323 319 313 312 313 314 314 314 314 315 315 315 314 315 315 314 314 317 318 319 322 324 325 325 326 332 328 319 319 317 316 319 318 318 319 319 319 318 318 317 316 316 316 317 318 318 316 314 314 312 312 312 311 312 313
310 311 311 311 311 311 311 312 312 311 311 311 308 307 308 308 308 308 308 308 310 309 308 308 307 308 309 310 311 311 314 320 323 320 315 312 313 313 314 314 314 314 315 315 316 315 315 315 314 315 317 319 320 323 323 322 323 325 328 325 318 319 318 317 319 319 318 319 319 319 317 316 316 316 317 316 317 319 318 315 316 315 312 313 312 310 311 312
310 310 311 310 311 311 311 312 312 312 312 310 309 307 308 309 309 310 309 309 310 310 309 309 309 310 310 311 312 312 317 321 320 317 314 312 313 313 314 314 314 314 315 316 316 316 316 315 315 318 318 318 322 323 320 319 321 323 321 320 319 319 319 317 318 320 318 318 320 318 316 316 316 317 318 317 318 321 318 314 314 313 311 312 312 310 310 310
309 310 311 310 311 311 311 311 311 312 312 310 310 309 308 309 310 310 311 310 310 311 311 310 311 311 311 313 313 314 318 319 317 315 313 312 312 313 314 313 314 314 316 317 316 316 316 316 316 319 319 318 321 322 319 318 321 324 321 319 320 319 318 317 318 319 318 318 319 317 316 316 317 317 317 320 319 318 314 312 312 311 310 310 310 310 310 309
310 309 310 310 310 311 311 310 310 311 310 310 312 310 308 308 308 309 311 311 312 312 312 312 312 312 313 313 315 321 322 319 318 316 313 313 313 313 313 313 313 314 316 316 316 316 317 318 316 316 320 320 319 320 318 319 321 323 321 319 319 319 318 319 319 318 318 318 317 316 316 316 318 316 319 321 315 312 311 308 308 308 308 309 310 309 309 309
310 310 311 311 310 311 311 310 309 308 307 309 311 310 308 308 307 308 310 312 312 312 312 313 313 313 313 312 319 326 324 321 318 315 314 314 313 313 313 313 314 315 316 316 316 316 317 318 316 316 319 319 317 318 318 320 322 321 320 319 320 319 318 321 321 318 318 318 316 316 317 318 319 315 317 319 311 310 310 307 307 307 308 309 310 309 307 308
310 309 311 311 310 310 310 310 311 310 308 306 308 309 308 307 307 308 310 311 312 313 312 313 314 314 314 316 320 321 320 320 316 314 314 313 313 313 313 315 315 315 316 316 316 316 317 317 317 317 317 317 317 318 318 321 321 318 318 318 319 318 318 320 320 319 318 318 316 316 318 319 318 315 316 315 310 310 309 309 310 309 310 310 310 308 306 307
309 309 310 311 310 310 310 311 312 312 311 308 306 307 307 307 307 308 310 311 312 313 313 313 314 314 315 319 321 317 317 318 314 314 314 313 314 313 314 316 315 316 316 316 317 316 317 316 316 316 316 318 317 317 318 320 319 317 318 319 319 319 319 318 319 319 319 318 317 317 318 318 316 315 316 313 309 309 310 310 310 310 310 310 310 307 306 307
310 310 310 310 310 310 311 311 311 312 312 311 309 306 306 307 307 309 310 311 312 313 314 314 314 314 315 318 322 320 319 318 316 316 315 315 315 314 315 315 315 316 317 318 317 316 316 315 315 315 317 317 316 318 317 317 317 317 318 319 320 320 318 318 318 319 317 316 318 317 317 316 313 315 318 313 308 309 310 310 310 310 311 310 311 308 305 306
311 311 310 310 310 310 311 311 311 312 312 311 310 307 307 307 307 309 310 312 313 314 314 314 314 315 316 319 322 321 320 320 319 317 317 316 316 316 316 315 316 316 317 319 317 316 314 314 316 316 317 317 317 319 316 315 316 317 317 319 322 321 320 320 318 318 318 316 317 316 316 319 316 315 317 311 308 309 309 310 310 310 311 310 311 309 306 305
311 311 311 311 310 309 310 311 312 312 313 312 311 307 306 307 307 309 311 313 314 314 314 315 314 315 317 320 320 319 320 321 319 318 317 317 316 316 316 316 316 316 317 318 318 316 314 314 316 317 317 318 318 316 315 316 316 318 317 317 322 323 324 322 317 318 318 316 317 315 318 325 323 316 313 309 308 310 310 310 310 310 310 310 310 310 308 305
312 311 310 311 310 309 309 310 312 313 313 313 312 308 306 307 308 311 313 314 315 315 315 315 315 316 318 319 318 318 320 320 319 318 317 317 317 316 316 315 315 316 316 316 317 316 314 314 315 316 316 317 318 315 317 318 316 320 319 321 322 321 329 327 316 318 318 314 317 316 318 325 325 316 310 309 309 310 311 311 310 310 310 310 310 310 309 305
313 312 310 310 310 308 308 309 311 313 312 312 311 308 307 309 311 313 314 315 316 315 315 314 314 317 321 320 317 316 318 319 319 318 317 318 317 316 315 315 315 315 315 315 315 314 314 315 316 318 317 316 317 317 323 325 322 319 319 329 328 319 331 330 315 317 318 314 314 316 319 321 321 315 310 310 310 311 312 311 310 310 310 309 310 309 308 305
314 313 312 311 310 309 308 308 310 312 311 310 310 309 309 311 314 316 316 315 314 315 317 317 316 316 320 321 317 316 317 317 318 317 318 318 317 317 315 315 315 314 315 314 313 314 314 317 318 319 317 317 320 324 330 331 330 326 320 328 330 321 326 325 316 317 318 316 313 315 320 321 320 315 310 310 311 311 312 311 310 309 309 309 308 307 307 305
314 314 313 312 311 310 309 309 310 310 310 310 309 310 312 314 315 315 316 315 314 316 318 319 316 314 316 316 316 320 319 317 318 317 318 319 318 317 315 315 315 314 315 314 314 315 315 317 317 318 319 319 322 328 331 328 330 331 322 321 326 323 322 322 321 318 316 317 315 314 317 319 320 315 311 311 311 312 312 311 310 309 308 309 308 307 306 306
315 314 313 313 312 311 310 309 310 310 310 310 311 313 316 316 316 317 316 315 315 315 315 317 315 313 314 314 315 320 319 318 319 318 318 318 317 316 316 315 314 314 315 317 317 316 317 320 321 321 321 319 320 325 328 326 329 332 327 323 324 325 323 323 323 319 316 316 316 316 315 315 317 316 312 311 310 311 312 311 310 309 308 308 307 307 306 306
315 314 314 313 313 313 312 310 310 311 310 311 315 316 315 315 316 318 318 317 319 316 312 318 317 313 315 317 318 319 319 319 319 317 317 317 316 316 316 315 315 316 318 320 319 318 320 323 325 324 322 321 320 321 325 326 329 331 330 329 328 325 325 324 323 320 316 317 318 317 316 316 315 316 315 312 311 311 311 311 311 310 308 308 308 307 307 306
315 314 314 314 314 313 312 310 310 312 310 312 317 317 319 322 318 318 321 321 323 319 315 319 318 316 318 319 319 318 318 318 318 318 316 316 316 316 316 316 317 318 320 324 323 319 321 324 325 324 323 322 320 319 320 322 324 324 323 326 327 324 324 325 323 319 317 318 321 319 317 318 316 318 318 313 311 312 311 312 312 310 309 308 308 308 307 305
315 314 314 314 314 314 312 310 312 313 311 313 316 319 324 325 317 317 323 325 322 318 319 318 315 316 318 318 317 317 318 317 317 317 315 315 316 316 317 317 319 320 321 325 324 319 319 323 324 325 322 319 320 319 318 319 320 320 321 322 324 324 324 324 321 318 318 319 324 323 319 319 318 319 320 314 311 312 312 312 312 311 309 309 308 308 307 304
316 315 315 314 314 313 312 312 314 313 312 313 315 318 321 320 317 317 319 325 323 318 319 318 316 317 317 317 316 316 318 320 319 318 315 315 315 317 319 318 320 323 321 322 323 321 321 322 321 320 320 319 321 320 318 319 319 321 323 320 323 327 325 324 322 318 318 319 326 328 323 321 320 319 320 317 313 312 311 311 312 311 309 308 308 308 307 304
316 316 315 314 314 312 312 313 314 313 312 314 315 317 319 318 318 317 317 324 327 322 321 320 319 318 317 316 316 316 319 321 323 321 316 315 316 319 319 319 320 321 320 321 323 324 325 327 322 317 319 320 321 321 320 320 320 323 323 321 325 328 324 325 325 319 318 319 323 325 322 319 318 319 320 318 314 313 312 312 313 313 310 308 308 308 306 304
317 316 316 315 314 312 312 313 314 313 313 314 315 316 319 319 318 318 320 324 325 323 322 320 319 318 317 317 315 317 319 319 324 322 316 315 317 319 319 318 320 320 319 319 321 322 324 327 323 319 319 321 321 321 321 321 322 327 327 324 326 327 324 325 325 321 323 325 322 320 323 325 323 321 320 318 314 314 314 314 316 315 311 310 309 307 305 304
317 317 316 316 315 313 312 313 314 314 313 313 314 315 319 319 318 318 320 323 324 323 321 318 319 319 317 316 316 317 318 317 321 321 316 315 316 318 318 316 318 320 319 318 320 320 320 321 322 323 321 321 322 322 325 326 323 326 329 327 323 324 326 326 326 325 329 334 327 322 329 336 335 327 324 320 315 315 315 314 315 315 312 311 310 308 306 304
317 317 317 316 316 313 312 313 315 314 314 313 312 313 317 318 318 317 318 321 323 322 321 319 320 320 318 317 316 317 319 318 318 318 316 315 316 318 319 318 318 320 319 318 319 320 321 320 321 324 324 325 323 322 327 327 323 325 329 330 326 324 324 324 325 325 332 335 326 323 331 334 331 327 327 325 319 317 315 313 314 313 312 310 308 307 306 304
318 317 317 317 316 313 312 314 315 314 314 313 311 312 315 316 317 316 316 320 321 319 321 320 317 318 319 317 315 317 320 319 317 316 315 316 316 317 319 319 318 318 318 319 321 322 322 321 322 324 326 327 324 324 327 325 325 329 328 331 331 325 325 326 326 327 333 333 325 324 329 328 326 325 324 324 323 320 315 313 312 311 310 309 308 307 305 304
318 317 317 317 315 313 313 315 315 314 314 313 312 313 316 317 317 317 317 317 319 321 322 320 315 315 317 315 315 318 318 319 321 317 313 314 315 316 318 319 319 319 320 321 323 323 322 323 325 325 324 326 325 327 330 324 325 330 326 330 333 329 330 330 328 329 329 328 326 326 326 327 330 329 323 320 321 321 317 314 311 309 309 308 307 307 305 304
318 318 317 317 316 313 314 315 315 314 313 314 314 315 317 318 317 320 320 315 319 325 320 318 317 316 317 316 316 319 317 318 321 317 314 314 314 316 317 318 318 319 319 320 322 325 325 322 323 326 324 326 328 329 330 326 323 325 325 329 333 332 332 331 329 329 327 327 328 327 326 327 331 330 324 319 320 322 319 315 312 309 308 307 307 306 305 303
318 318 317 317 315 313 313 315 315 314 314 316 317 315 317 318 315 320 321 315 318 326 318 317 320 318 318 317 317 319 320 318 317 315 315 315 315 315 316 317 319 322 322 321 323 323 321 316 318 324 324 324 326 323 323 325 323 324 328 332 333 332 332 333 330 327 327 328 328 328 326 326 330 332 328 322 322 323 319 318 315 310 309 307 306 306 304 303
318 318 318 317 315 313 313 315 315 315 316 317 318 316 317 320 319 320 320 314 313 321 318 317 320 318 317 319 319 319 320 319 315 316 318 316 317 317 318 319 320 324 324 323 325 322 319 318 320 322 320 322 326 321 320 324 322 325 332 332 331 331 332 331 326 324 328 329 328 327 324 323 328 334 330 322 321 322 320 321 320 313 309 307 306 305 303 302
319 318 318 317 315 313 314 315 316 316 316 317 318 318 317 322 323 320 317 311 311 320 322 321 321 319 318 319 321 319 320 320 316 317 319 318 318 318 318 320 320 323 324 323 325 324 322 324 324 320 318 322 327 324 323 324 322 325 330 330 328 328 330 331 326 325 327 327 323 322 323 323 324 327 326 322 320 320 321 320 319 315 309 306 306 304 303 302
319 319 318 317 316 314 314 315 316 317 317 317 317 319 319 321 321 319 316 312 316 323 323 322 321 320 319 322 322 319 319 321 317 317 319 318 319 318 318 321 320 323 329 325 322 325 326 326 323 320 319 321 324 323 323 324 323 323 325 328 329 328 330 333 330 327 328 327 322 318 322 325 325 325 323 321 320 321 322 320 318 315 309 306 305 304 303 302
319 319 318 317 316 315 314 314 316 317 317 316 317 320 321 318 318 319 316 313 318 323 322 323 322 320 320 323 323 320 320 321 317 317 320 319 320 320 319 320 318 323 331 326 321 325 327 328 325 321 321 322 321 321 325 325 322 321 322 326 328 330 335 335 332 330 331 330 322 316 322 328 330 327 321 318 318 319 320 317 314 311 308 306 305 303 303 301
319 319 318 317 316 315 314 314 316 317 317 317 319 321 320 317 317 319 318 314 316 322 323 322 322 322 322 324 323 320 323 324 317 318 321 320 320 320 319 319 317 320 328 325 323 323 323 329 329 321 320 322 320 321 324 324 321 321 324 326 326 330 333 331 329 326 324 326 322 319 325 329 327 323 318 316 315 315 317 314 311 310 307 306 305 303 302 301
319 318 317 316 316 315 314 315 316 317 317 318 320 322 319 318 317 317 318 316 314 320 323 322 323 324 324 325 324 320 324 326 320 319 322 319 319 320 319 319 317 318 322 322 326 326 325 329 325 317 319 320 319 322 322 323 325 322 322 324 323 326 328 328 328 322 320 326 326 322 326 325 321 320 319 315 313 313 314 312 310 309 307 305 304 303 302 301
318 317 317 316 316 315 315 315 316 316 317 318 320 321 319 318 317 315 316 316 314 318 323 323 323 326 325 324 325 322 323 325 321 321 323 321 321 321 319 320 318 317 319 320 326 329 328 328 322 318 321 318 316 322 322 321 323 323 323 323 321 324 328 329 330 326 325 328 326 323 325 325 322 323 320 315 316 318 314 312 310 308 306 305 304 302 302 300
317 316 316 316 316 315 315 316 317 316 318 319 319 320 319 318 318 316 314 315 315 318 322 321 321 324 325 324 325 323 322 325 322 321 324 322 323 323 319 321 320 317 317 319 325 329 327 328 323 317 320 318 315 320 322 320 318 322 325 322 323 329 329 327 328 329 329 329 328 327 325 323 322 324 322 318 318 320 316 313 311 308 306 305 304 303 301 300
317 316 317 316 315 316 315 315 316 316 319 320 318 319 320 318 317 316 315 314 315 317 318 319 319 322 324 324 325 323 322 324 322 321 324 323 323 323 319 321 322 318 317 318 323 327 326 328 326 317 317 318 316 319 324 322 318 320 321 319 322 328 327 326 327 327 329 329 330 330 326 325 323 322 324 323 319 318 316 313 311 308 306 305 304 303 301 300
317 318 319 317 315 316 315 315 316 318 321 320 318 317 318 318 317 316 315 314 316 318 316 317 319 320 323 324 325 324 322 323 321 320 324 323 323 324 320 320 323 319 317 318 321 324 324 326 327 319 315 318 319 320 323 322 319 320 321 320 321 321 322 326 325 325 329 329 330 330 326 329 328 321 319 322 319 316 314 313 311 307 306 305 304 303 301 300
317 320 320 317 316 316 315 316 318 319 320 319 317 316 316 317 317 316 315 314 317 321 320 319 319 319 321 323 323 323 322 322 321 321 323 322 322 324 322 321 322 320 319 320 321 323 324 327 329 323 317 319 323 321 318 319 319 319 319 320 321 320 322 326 325 324 325 326 330 330 326 329 330 322 318 318 317 314 312 313 311 308 306 306 304 303 301 301
318 321 320 317 316 315 316 318 319 319 319 317 316 316 316 317 318 317 316 315 316 320 323 324 323 320 320 322 322 324 323 322 322 321 322 321 321 323 323 321 321 320 320 321 321 322 326 329 330 326 320 319 320 319 317 318 318 318 320 322 321 320 321 325 326 326 324 324 326 327 327 326 321 319 320 319 319 316 311 311 312 309 307 306 304 303 302 301
319 320 319 317 316 316 317 320 320 319 318 316 315 317 317 317 317 318 317 316 316 318 320 323 325 323 322 322 322 323 323 323 323 321 322 322 320 323 325 322 322 322 320 322 322 322 325 327 327 326 321 318 319 319 318 318 317 318 321 322 321 319 320 323 327 327 326 325 323 323 326 323 316 316 320 319 319 318 313 310 311 310 308 306 305 304 302 301
319 319 318 317 316 316 318 321 321 319 318 317 316 316 317 317 317 318 319 318 317 318 319 321 324 325 325 325 325 324 323 323 323 321 322 323 321 324 327 323 322 323 321 323 323 322 324 327 328 329 327 324 323 322 319 318 317 319 321 319 318 319 319 321 324 324 323 324 324 324 325 324 319 317 317 318 318 316 313 311 310 310 310 308 306 304 302 302
318 318 318 317 316 317 320 321 321 320 318 318 317 317 317 317 317 317 319 319 318 318 318 319 322 325 327 328 327 326 324 323 324 323 323 322 322 324 326 324 322 321 321 323 321 320 325 327 326 327 329 328 328 326 322 319 317 318 320 319 318 319 320 320 322 322 323 323 323 323 323 324 323 319 316 317 317 314 313 312 311 310 310 308 306 305 303 302
318 318 317 317 317 317 319 320 320 320 319 319 318 317 317 317 317 317 318 319 319 319 319 319 321 324 326 327 327 327 327 325 327 327 324 324 326 323 320 321 323 322 324 326 323 322 326 326 323 325 327 327 327 327 323 320 319 319 319 319 319 319 319 320 321 322 323 323 323 322 322 323 324 322 319 319 318 316 315 314 312 311 309 308 307 305 303 302
316 317 317 317 317 317 317 317 317 318 319 319 317 316 316 317 317 317 318 319 319 319 320 320 321 323 324 324 325 326 326 325 327 328 325 325 326 320 315 317 319 319 322 323 322 322 324 324 322 324 325 324 325 327 323 320 320 320 319 319 318 318 319 320 321 321 323 324 324 322 322 323 323 323 323 322 319 317 316 315 313 311 308 307 306 305 304 303
315 316 317 317 317 317 317 316 315 315 316 317 316 315 315 315 316 317 317 318 318 319 321 322 322 322 322 323 324 325 325 325 325 326 325 325 325 320 317 318 317 315 318 319 317 319 323 323 322 322 323 322 324 326 323 320 320 320 319 319 318 318 318 319 320 320 321 323 323 323 324 324 321 320 322 322 318 316 315 312 312 311 309 307 306 305 304 303
313 314 315 315 316 318 317 315 315 314 314 316 316 315 315 315 315 316 317 318 318 319 320 322 322 322 322 322 323 323 324 324 324 324 324 325 324 322 322 322 318 313 315 316 314 314 319 322 322 321 321 322 322 323 322 320 320 319 318 318 317 317 317 318 319 319 320 321 321 323 325 323 321 321 320 317 315 313 313 312 312 313 310 307 307 306 304 303
311 312 313 315 316 317 317 315 315 316 314 315 317 315 315 315 315 315 316 318 318 318 319 321 321 321 322 321 322 323 323 323 324 323 323 323 322 321 322 323 321 315 313 314 312 310 315 321 322 320 321 322 321 321 321 321 321 320 320 319 317 316 316 317 318 318 319 319 318 320 322 320 321 324 321 317 315 314 315 314 313 313 311 308 307 306 304 303
307 306 308 311 314 316 316 315 316 317 315 314 315 314 315 316 316 316 317 317 318 318 319 320 320 320 321 321 322 322 321 321 322 322 323 323 321 320 320 322 323 319 314 313 314 313 315 319 320 320 322 322 321 321 321 320 320 320 320 320 318 316 315 315 317 317 318 319 319 319 320 319 319 321 319 317 316 315 315 315 311 309 309 308 307 306 305 304
306 305 305 308 312 314 315 315 315 316 315 313 313 313 314 315 316 317 317 317 318 318 318 319 320 320 321 322 321 321 322 322 322 322 322 321 320 321 321 320 321 321 316 314 314 315 316 318 319 320 322 322 321 322 321 319 320 321 321 321 319 316 315 315 315 316 316 317 319 319 318 319 320 318 317 317 318 316 315 313 310 308 308 308 308 307 306 305
Wind_Speed
1 1 1 1 1 1 1 2 2 2 3 2 1 2 2 2 2 2 2 3 3 4 4 5 6 6 7 7 9 10 11 9 7 5 1 1 3 5 5 5 4 5 5 6 9 9 10 10 6 8 7 3 2 1 2 2 2 5 3 3 1 1 1 1 1 3 4 5 4 3 3 6 3 0 0 2 7 6 5 6 4 7 7 7 9 10 9 8
1 1 1 1 2 2 2 3 3 3 3 3 2 1 1 2 2 2 2 3 3 4 4 5 5 6 7 7 9 10 11 9 4 2 1 3 5 6 6 5 5 5 6 7 9 10 8 6 9 9 6 2 2 2 2 2 3 4 3 3 1 3 2 2 2 2 3 6 6 2 4 5 5 2 1 1 2 5 6 4 4 6 6 6 10 12 11 11
1 0 1 1 2 2 3 4 4 3 3 3 2 1 1 1 1 2 2 3 3 4 4 5 5 6 7 8 9 10 10 7 2 1 1 6 8 7 6 6 6 7 8 8 8 9 6 6 9 6 3 1 2 2 3 2 2 2 4 4 3 4 2 4 3 4 2 6 7 3 3 4 2 2 2 2 2 5 5 2 3 4 4 4 6 11 13 14
1 0 1 2 2 2 3 4 4 4 4 4 3 2 1 0 1 2 2 2 3 3 4 4 5 6 6 8 8 9 8 3 1 1 5 8 8 7 7 6 7 8 8 8 7 7 7 9 8 3 3 2 3 3 3 2 1 2 3 3 5 3 3 3 2 5 3 5 7 4 3 3 1 1 3 4 3 2 3 4 4 7 7 6 5 9 13 14
1 0 1 2 3 3 3 3 4 5 4 3 3 2 1 1 1 1 1 2 2 3 3 4 5 6 6 7 7 9 6 3 2 4 8 9 8 8 6 5 6 8 7 7 7 7 8 8 5 4 3 2 3 4 2 2 2 3 1 4 3 4 3 3 1 4 3 5 5 5 4 1 0 1 2 6 4 4 4 4 5 8 8 7 7 9 11 13
2 1 1 2 2 3 4 3 4 5 4 3 3 3 2 2 2 2 2 2 2 3 4 4 5 6 6 6 8 7 3 2 3 7 10 9 8 7 5 4 5 7 6 6 8 8 7 5 5 4 2 2 2 3 1 3 4 3 2 1 3 4 4 3 1 2 3 6 4 3 2 1 3 2 2 5 4 4 5 6 7 8 9 10 10 9 9 10
4 3 2 3 3 3 4 4 4 4 4 3 4 3 3 3 3 3 3 2 3 3 4 4 5 6 5 6 6 4 3 2 4 9 10 9 8 6 5 2 4 5 5 7 10 7 5 6 5 2 3 4 2 2 1 3 5 4 1 3 3 2 4 3 3 1 4 5 2 3 1 1 3 2 0 4 2 4 7 7 9 10 12 13 10 8 8 9
5 4 3 3 3 3 4 4 4 5 5 4 4 4 4 5 4 3 3 3 3 3 4 4 5 5 5 5 3 3 1 3 7 11 10 9 8 6 5 2 2 4 5 6 7 5 4 6 4 2 4 2 1 2 2 4 5 4 0 2 2 1 3 5 5 3 2 2 2 3 0 4 5 3 1 4 5 5 7 8 9 9 11 10 7 7 8 10
6 6 4 4 4 4 3 4 4 5 6 5 4 4 5 5 5 4 4 4 3 3 4 4 5 4 5 4 3 2 2 3 9 12 10 9 7 5 4 2 2 3 4 3 4 5 3 3 3 3 3 1 2 2 2 4 2 1 1 2 2 3 3 4 4 4 4 2 2 2 3 6 4 3 2 4 8 6 7 7 7 8 8 7 6 7 9 9
7 6 6 5 5 4 4 4 4 5 6 5 5 5 6 6 5 5 5 4 3 3 3 4 4 3 3 3 4 1 2 5 9 11 9 8 7 6 5 2 1 2 3 3 4 6 3 2 2 1 3 1 2 2 2 3 1 2 1 4 4 5 5 3 5 6 4 2 4 4 4 5 3 2 3 3 8 7 8 7 6 7 7 6 6 6 10 9
10 8 7 6 5 5 4 5 5 5 6 6 6 6 6 6 5 5 5 4 3 3 3 4 4 3 2 3 4 3 3 5 8 10 8 7 7 6 5 2 2 3 2 3 5 5 4 3 4 2 2 1 2 2 2 1 1 0 3 5 6 6 6 4 6 6 4 2 5 6 3 4 3 2 5 6 8 7 9 8 6 7 6 7 6 6 8 10
12 10 8 7 7 6 5 5 5 6 6 6 7 6 6 6 5 5 4 3 3 3 3 3 3 3 2 2 2 4 4 6 7 8 8 7 7 6 3 2 3 3 3 5 4 4 5 4 6 4 0 1 1 2 1 2 1 1 3 3 7 6 5 6 7 6 6 3 5 7 3 5 3 5 4 8 9 7 8 8 6 7 6 6 6 5 6 10
12 12 9 8 8 8 7 6 6 6 7 7 8 7 6 6 5 4 3 2 2 2 3 3 2 2 2 0 3 5 7 7 7 7 7 6 6 5 4 4 3 3 2 4 3 3 4 3 5 4 1 3 1 0 1 0 2 1 1 1 4 7 5 7 5 6 7 3 6 7 2 6 7 6 4 8 10 8 8 7 6 6 6 6 5 5 5 8
12 12 12 10 10 10 8 6 6 7 8 8 9 8 7 4 3 2 1 1 1 2 2 1 0 1 2 2 3 5 8 7 7 7 8 7 7 7 5 5 4 3 1 1 1 2 2 1 4 3 1 3 1 0 2 3 2 1 2 1 1 2 5 7 1 8 7 1 5 7 2 6 8 5 6 8 9 10 9 7 7 6 6 6 5 5 5 7
12 12 13 12 12 12 10 8 6 7 8 8 9 9 5 2 1 0 1 1 0 1 1 1 2 2 2 3 3 3 7 6 7 9 9 8 7 7 6 6 4 3 1 1 1 1 2 2 4 3 1 1 3 3 3 4 2 1 1 3 2 2 5 7 1 9 7 1 3 6 2 7 8 5 7 7 7 8 8 8 7 7 7 6 6 6 5 6
13 12 12 11 11 12 11 8 6 6 7 7 9 6 2 1 1 2 2 2 1 1 2 2 1 3 1 2 1 2 5 5 7 9 10 9 6 7 8 8 6 5 3 3 3 3 3 4 3 2 1 2 4 4 3 4 4 2 2 3 3 2 4 5 2 5 7 4 2 4 3 4 5 5 7 7 8 8 7 8 9 8 8 7 6 6 6 6
14 13 12 11 11 11 11 9 7 6 6 7 7 3 1 2 3 3 3 3 3 3 3 2 1 2 0 1 1 3 5 7 10 11 11 9 8 10 10 7 5 6 5 5 4 2 3 3 1 1 2 2 2 5 4 2 4 4 1 3 4 3 3 2 4 4 5 6 4 6 5 5 5 4 8 8 9 9 8 9 10 9 8 7 7 6 7 7
14 14 13 12 11 11 10 9 6 4 5 6 4 2 3 3 3 3 4 5 4 4 1 1 2 1 3 3 3 2 5 9 12 12 12 11 11 10 7 5 5 6 5 4 3 2 2 3 2 1 2 1 1 5 3 4 4 3 3 2 4 3 3 4 4 3 6 5 5 5 6 9 10 6 7 8 8 9 9 8 8 8 8 7 7 7 7 7
15 14 14 12 11 10 10 8 6 3 4 3 2 4 4 4 2 1 2 4 3 3 1 3 4 3 3 4 3 4 7 11 11 10 11 11 10 8 5 5 6 6 4 2 2 0 2 3 4 2 2 3 5 6 7 8 7 6 5 4 4 4 4 5 4 4 7 5 5 7 7 10 11 8 8 8 8 9 9 6 6 7 7 8 7 7 7 7
16 15 14 13 12 10 10 6 6 2 2 0 3 3 3 2 2 1 1 2 5 5 2 5 7 3 1 1 5 9 10 8 5 5 10 11 10 8 4 3 5 4 2 4 2 1 3 3 2 4 6 7 8 9 10 8 6 5 4 3 4 4 5 5 4 4 4 3 6 8 8 9 9 8 9 9 8 8 9 7 7 8 8 8 8 8 8 7
17 16 14 13 12 10 8 5 5 1 2 3 2 2 2 2 2 1 2 3 10 13 8 5 9 5 1 5 11 13 7 3 2 3 11 11 10 9 2 2 5 0 2 4 2 1 3 4 7 9 9 8 8 10 9 7 6 6 5 5 5 4 6 5 2 3 0 1 6 5 6 10 8 8 8 7 8 10 12 11 10 11 10 8 9 9 8 6
18 17 14 12 11 10 7 6 6 2 4 5 2 1 1 2 3 1 1 2 9 14 14 10 8 6 2 6 15 13 4 2 1 2 10 10 7 6 2 3 5 4 3 3 2 0 2 5 9 10 8 6 7 7 7 8 8 8 5 3 5 5 4 5 3 3 1 1 4 5 5 9 9 8 8 8 11 11 13 14 12 12 12 9 10 9 8 8
20 18 15 13 11 9 8 8 6 4 7 8 5 5 3 4 6 5 1 0 6 8 9 9 8 8 4 4 11 11 3 4 4 4 11 10 4 4 5 5 6 4 3 4 5 4 4 6 10 10 7 6 7 7 6 6 5 6 5 3 4 4 2 3 4 4 2 1 2 5 6 8 8 8 9 9 8 6 8 10 8 9 11 10 11 10 10 11
22 20 17 15 12 9 9 9 7 7 11 11 11 11 8 5 3 5 2 1 5 5 7 12 10 7 9 7 11 12 3 4 6 6 14 12 5 3 5 6 6 4 4 8 9 8 8 7 6 8 8 8 7 7 7 6 4 4 5 5 4 4 5 6 3 2 3 4 2 3 6 8 6 8 10 5 1 2 4 7 6 6 8 9 9 9 10 11
23 22 19 17 14 11 10 10 8 11 12 11 15 16 13 5 0 3 2 1 4 5 4 11 7 6 12 12 14 11 1 4 4 8 18 16 9 4 3 4 4 6 8 9 9 8 10 7 2 6 7 8 8 7 7 7 5 5 4 7 8 7 7 6 2 3 4 5 3 1 2 7 4 5 8 3 1 5 4 6 8 7 7 8 9 9 9 9
25 23 21 20 16 13 12 8 10 13 11 12 16 16 14 7 1 1 1 3 5 3 2 6 5 8 13 11 10 7 1 5 2 10 21 18 10 5 3 4 2 5 8 6 5 4 5 7 5 6 7 7 8 7 6 7 5 4 5 7 8 8 7 6 1 1 1 5 3 3 2 7 6 5 8 4 6 9 6 6 8 6 7 9 9 9 9 9
27 25 23 22 18 19 14 6 12 15 9 11 13 15 15 10 5 4 2 3 5 3 5 2 2 7 10 11 13 8 2 4 4 6 12 11 8 2 2 6 3 4 5 3 4 4 4 8 9 8 7 7 7 6 6 7 7 4 5 4 6 7 7 6 3 2 4 3 4 2 3 5 9 7 7 7 8 10 9 9 9 7 8 8 8 9 10 10
29 27 26 24 22 25 17 10 17 18 10 6 8 17 16 10 7 3 4 0 4 3 4 2 1 4 5 9 14 8 2 3 6 2 1 3 4 1 3 8 6 7 5 6 6 4 3 8 9 10 8 6 6 5 6 9 6 6 4 5 6 5 4 3 4 1 1 2 4 2 2 3 9 5 1 3 7 10 11 13 12 11 10 9 9 9 9 9
31 29 28 25 24 25 19 13 17 18 14 7 9 19 17 10 7 3 4 3 2 2 2 2 2 2 5 7 9 5 2 3 3 2 2 3 1 2 3 6 5 7 6 6 8 3 1 6 7 9 7 6 5 1 4 8 6 4 3 6 6 4 4 5 4 3 3 2 4 5 4 3 8 4 3 2 5 9 12 12 11 12 11 10 9 8 8 8
33 32 30 27 25 28 24 18 17 16 13 9 12 20 16 8 4 3 2 3 1 1 0 1 2 4 9 10 4 2 3 2 1 1 2 1 2 4 1 1 4 4 3 4 4 2 1 1 2 3 4 5 5 3 2 3 6 6 6 6 7 6 5 4 2 4 2 4 6 10 11 7 6 3 4 4 5 7 8 7 6 9 11 11 10 9 9 8
37 34 33 31 30 32 25 18 20 20 15 13 17 19 12 3 2 3 6 1 2 1 2 1 2 5 13 14 7 4 4 2 1 5 4 2 1 3 1 1 3 2 2 4 4 4 3 1 1 1 2 4 6 4 3 3 4 6 5 5 4 4 4 4 4 4 1 6 6 10 12 11 8 6 3 5 6 5 7 7 7 10 12 12 10 10 10 9
40 37 37 36 34 35 27 19 23 25 20 20 20 13 6 2 1 6 5 1 1 4 5 4 4 6 11 11 8 8 6 2 4 6 6 4 4 5 5 6 6 3 3 5 3 3 3 3 3 1 1 4 6 4 3 5 3 5 5 6 3 1 3 3 2 0 4 6 3 6 7 7 9 8 7 10 10 8 7 7 8 11 12 11 11 11 10 9
42 41 41 40 38 39 32 24 27 27 25 24 16 4 3 5 7 9 8 4 2 2 4 4 5 8 11 8 6 6 4 2 5 6 4 5 5 7 6 5 6 4 3 6 4 2 3 5 1 2 3 3 8 7 3 2 2 5 7 6 5 3 1 3 4 2 4 5 4 3 5 4 6 5 11 15 12 8 6 6 8 11 13 13 12 11 10 10
43 43 44 44 43 42 35 29 29 30 29 22 9 3 6 9 9 11 14 12 4 2 3 4 5 7 8 6 4 6 4 2 7 6 3 5 5 6 5 6 8 4 3 4 3 5 5 6 4 8 4 6 11 10 6 6 5 6 5 6 5 5 4 4 4 4 4 4 4 1 3 4 3 3 7 9 7 5 4 4 5 7 9 10 9 9 10 10
43 45 45 43 41 40 37 33 32 33 28 16 6 7 11 10 9 12 14 12 6 1 2 5 8 6 6 3 2 6 5 2 6 6 4 6 6 7 7 8 11 7 4 4 2 4 7 7 6 7 3 9 13 7 6 8 3 3 3 4 3 6 5 3 3 4 3 2 3 2 4 5 4 5 6 2 4 4 3 1 6 6 7 9 9 10 10 10
43 44 39 36 37 40 40 35 35 36 25 11 8 10 10 10 10 10 8 8 10 4 4 5 5 4 6 3 3 6 3 3 6 5 4 5 4 6 7 6 11 12 9 7 2 3 4 5 4 1 2 6 9 5 5 5 4 2 3 4 4 4 5 2 3 1 2 3 4 4 5 5 3 7 5 1 2 4 1 2 6 6 8 10 10 10 10 10
39 34 28 29 37 42 43 38 37 35 19 9 12 11 10 12 9 6 4 5 10 8 6 4 4 6 7 4 4 7 3 2 6 6 3 4 4 7 9 4 8 16 13 7 3 3 5 3 3 2 2 4 2 3 2 0 4 6 4 6 2 2 1 2 1 3 2 4 5 4 7 5 2 6 3 2 3 6 5 5 6 6 8 10 10 10 11 11
29 21 16 26 38 42 44 42 37 27 9 5 12 10 10 13 11 8 6 5 8 8 7 8 7 7 7 7 5 7 6 3 6 6 4 4 4 8 12 6 8 17 16 8 3 3 4 3 3 1 2 3 2 3 1 4 2 5 4 5 4 1 1 2 2 2 2 4 5 3 5 6 7 6 2 4 9 10 8 6 7 9 11 11 10 10 11 11
21 9 8 25 39 41 45 44 31 15 4 5 10 9 10 14 13 10 7 6 8 10 10 11 8 5 7 8 6 7 9 7 8 7 4 5 5 6 13 10 7 14 16 11 7 4 3 3 3 1 1 1 1 2 4 2 0 2 1 2 2 2 3 4 3 3 3 3 4 3 3 5 7 7 8 11 13 13 11 9 10 12 13 11 10 11 11 11
12 3 5 23 41 44 47 39 18 6 6 8 9 8 10 10 9 11 12 11 8 7 10 13 11 8 8 9 9 8 8 7 9 8 5 6 5 5 9 10 7 11 15 15 10 3 2 3 3 2 2 1 2 3 8 10 7 3 3 4 3 1 2 1 2 2 4 2 3 4 6 7 4 5 10 14 14 14 13 13 12 12 12 12 11 12 12 12
5 3 2 21 43 46 39 22 7 5 8 8 10 11 9 4 3 10 15 15 9 3 4 9 12 11 9 9 9 8 7 6 8 7 5 7 7 5 7 10 10 10 11 11 9 5 3 3 3 2 1 3 5 5 6 8 7 6 6 7 7 5 4 2 4 3 4 3 4 3 8 10 4 4 7 10 11 11 13 14 12 11 12 13 11 12 13 13
3 5 3 23 49 47 26 9 6 7 7 8 11 11 4 0 3 8 12 13 12 6 2 3 9 12 10 9 8 7 8 7 8 8 6 9 11 7 8 12 13 14 12 9 11 8 4 3 3 3 3 5 5 4 1 2 3 3 3 4 5 6 7 6 6 4 3 4 3 3 5 9 2 1 3 5 6 7 9 12 11 10 12 12 11 11 12 12
4 5 2 25 52 43 17 9 11 9 8 9 11 10 5 3 5 7 9 13 13 10 7 4 4 8 8 7 7 9 9 7 10 12 8 9 11 7 9 14 13 13 11 6 7 4 3 3 3 1 1 2 4 4 4 4 3 2 3 5 7 8 8 6 5 3 3 5 4 2 6 7 3 3 3 3 4 3 6 10 10 8 8 9 10 11 11 11
4 3 1 21 48 37 12 9 12 11 11 12 12 13 11 7 7 9 11 14 13 10 10 7 4 4 5 4 5 8 12 9 9 13 10 7 7 2 5 14 15 13 10 7 7 7 5 4 4 2 1 2 3 2 3 2 2 4 5 6 8 8 7 3 1 2 4 8 8 6 10 8 3 4 4 4 5 3 2 7 8 7 7 8 9 10 10 10
3 3 1 12 31 24 9 9 11 11 13 14 15 18 16 9 9 12 12 12 12 10 10 10 7 4 2 3 2 3 9 11 8 9 8 6 4 2 2 8 14 13 9 7 9 9 6 5 6 6 7 8 8 5 4 4 4 3 3 7 10 12 13 9 3 4 9 7 9 10 12 6 3 5 5 5 4 4 2 4 6 7 8 8 9 9 10 10
3 3 2 4 9 9 6 4 5 8 12 14 13 14 17 14 10 12 12 10 11 12 11 9 8 5 3 4 4 2 7 8 3 4 6 5 3 1 3 2 5 6 4 7 10 7 3 4 10 14 13 14 13 6 5 8 7 7 9 12 14 15 16 11 6 9 9 3 6 13 12 8 7 4 5 6 4 4 4 4 6 7 7 8 9 10 10 11
4 3 4 4 3 6 7 3 3 5 8 13 10 8 16 18 11 8 10 10 11 13 12 9 7 8 8 8 8 8 8 5 2 3 5 5 2 2 2 3 3 2 4 6 7 5 4 3 11 16 16 17 15 5 8 12 12 14 15 15 16 15 15 14 14 15 8 4 11 11 8 12 14 7 8 9 6 6 7 8 9 8 8 8 8 9 10 10
4 2 3 5 3 4 8 8 8 8 8 10 9 7 13 18 13 9 10 11 11 10 9 8 10 13 16 15 12 9 8 7 6 5 5 4 2 1 2 3 1 3 4 3 2 4 4 6 9 12 14 18 14 6 8 12 10 11 15 17 18 17 18 20 21 19 11 10 17 8 11 18 16 8 10 10 9 11 11 9 7 6 7 7 8 9 11 11
3 2 2 3 4 5 7 7 9 10 11 10 8 8 11 16 17 14 9 7 9 10 10 11 16 20 19 16 12 10 10 10 10 10 8 6 4 4 1 1 1 2 4 4 2 1 3 3 4 8 12 17 16 7 7 10 8 8 12 15 17 19 23 23 22 22 17 18 20 9 8 17 12 8 12 10 9 9 6 4 4 6 8 8 9 10 11 11
2 2 2 3 4 5 5 5 8 9 10 8 7 7 9 14 18 15 9 9 10 12 14 18 22 21 19 16 13 13 14 14 15 14 10 8 6 5 5 4 3 2 2 4 2 0 3 1 2 5 6 14 14 8 6 8 8 8 9 11 15 18 19 19 20 19 15 19 21 11 9 15 7 6 6 3 3 4 5 6 7 7 8 10 10 10 10 10
4 2 0 2 4 4 5 5 7 7 7 6 5 5 7 13 15 12 10 12 13 12 14 21 25 17 13 16 16 17 19 19 18 14 10 11 10 8 7 5 6 6 4 4 3 3 5 2 2 5 5 12 11 10 10 8 6 8 12 17 18 14 12 15 16 14 15 19 19 12 13 14 5 5 2 2 5 6 7 8 7 6 7 9 10 9 9 10
3 3 1 1 4 4 5 4 6 7 6 8 9 9 9 10 10 8 6 7 11 13 13 19 22 12 9 16 20 21 20 14 9 6 4 5 5 5 6 6 8 9 8 6 3 3 5 4 2 5 7 11 7 8 9 7 5 8 15 19 18 12 11 13 14 15 18 17 14 12 14 11 4 5 4 3 5 7 8 7 6 6 7 8 9 10 10 11
Wind_Direction
261 200 289 327 351 315 282 326 339 347 350 326 301 277 263 251 257 252 262 262 268 281 283 291 297 304 309 315 320 324 332 340 343 353 7 175 121 120 106 84 69 42 25 20 15 11 7 11 358 359 8 353 22 8 1 14 50 56 74 73 31 221 49 286 179 172 154 138 187 203 105 120 163 314 321 21 59 88 68 59 53 48 69 92 109 107 93 95
202 195 288 354 351 345 341 339 340 350 354 335 315 297 279 246 250 240 252 263 269 275 279 289 296 302 308 318 320 327 336 340 354 27 119 163 133 118 106 84 63 39 24 31 25 13 11 351 336 358 27 1 333 24 17 347 56 70 101 72 257 196 35 320 136 107 116 147 171 140 90 114 162 181 82 53 76 103 87 61 74 73 72 85 98 100 93 91
178 142 345 6 354 354 358 354 350 346 353 340 318 307 305 242 244 239 243 253 263 269 275 285 294 302 309 316 319 330 336 344 33 61 158 147 133 121 105 82 57 35 26 35 23 4 357 319 319 348 46 359 304 55 43 359 44 82 99 73 253 198 61 3 74 81 109 142 135 108 86 96 165 173 107 153 102 93 124 148 134 126 131 119 99 98 95 87
187 356 345 1 1 356 356 1 356 347 348 339 324 311 321 339 262 248 241 247 262 269 275 285 295 300 307 312 316 328 339 20 84 216 149 143 137 128 110 82 55 33 21 27 13 350 338 322 323 1 56 1 321 45 52 348 36 57 100 146 231 164 86 338 63 83 74 105 124 136 92 77 238 163 123 146 104 37 199 206 176 158 153 146 124 101 96 89
229 248 341 345 358 359 358 359 360 355 343 342 342 320 329 347 315 301 265 261 274 280 284 290 295 296 304 308 314 326 355 66 220 195 149 148 146 139 116 82 54 28 20 20 1 345 329 322 354 36 56 13 346 35 7 298 86 58 68 170 202 97 113 253 96 70 56 78 97 112 102 120 204 31 147 145 163 223 198 177 143 137 144 143 132 109 95 89
254 253 305 324 350 355 355 354 355 355 342 347 348 333 332 317 316 327 309 300 297 294 296 295 296 296 301 306 314 328 38 105 226 176 158 155 151 148 125 83 47 24 21 14 360 356 341 348 28 29 48 48 45 90 279 306 81 91 305 43 31 75 132 208 120 45 71 81 79 119 148 153 70 316 218 143 179 193 150 142 129 124 132 127 118 109 96 93
262 273 283 300 328 339 347 350 343 345 344 344 339 332 324 311 312 314 316 322 306 300 300 299 299 298 306 314 320 353 102 207 209 170 168 160 155 152 133 97 39 29 27 18 10 9 8 24 26 22 56 37 55 111 285 334 58 95 291 343 2 61 121 153 157 125 91 105 150 124 95 130 132 248 77 114 169 146 127 128 128 126 121 116 108 107 104 103
250 261 273 287 301 319 333 340 340 341 335 331 332 326 315 309 308 305 310 313 306 303 294 297 305 305 323 333 351 25 26 224 182 172 173 162 158 153 148 148 62 41 33 23 10 4 18 35 22 43 58 29 64 54 11 15 27 73 87 300 328 344 150 151 146 145 127 163 172 87 355 232 190 193 164 163 172 145 135 129 127 123 110 108 110 113 109 100
243 251 260 274 284 294 311 331 337 334 325 318 320 317 308 303 304 306 301 301 303 292 292 301 305 314 334 350 70 46 291 191 168 172 171 163 162 158 169 168 98 63 41 20 11 22 34 53 22 54 81 272 59 27 26 53 9 207 144 325 330 296 232 157 150 175 189 213 151 95 268 264 236 195 249 188 169 156 137 135 136 122 110 112 114 117 113 101
252 250 252 260 273 282 296 316 323 330 327 315 306 303 299 296 301 304 297 297 297 290 297 302 306 328 345 13 76 124 236 159 163 171 170 167 163 167 185 192 138 103 50 8 35 50 80 80 357 120 132 323 19 17 61 97 199 225 58 342 303 276 270 178 186 203 191 224 179 169 247 284 299 202 238 193 166 159 137 147 150 125 128 128 115 113 113 106
263 257 259 262 267 278 293 303 313 327 327 321 307 296 296 295 298 303 300 300 296 298 301 302 319 336 354 59 100 187 201 164 167 165 170 172 170 183 192 192 169 142 79 35 50 60 71 33 7 65 109 40 34 31 35 123 178 78 47 340 299 290 293 224 209 213 167 225 185 158 242 304 6 260 226 176 162 161 146 157 155 134 140 134 124 117 111 107
264 258 261 264 266 273 281 293 306 312 317 322 309 298 297 293 294 301 304 305 301 301 300 308 330 339 8 76 161 209 198 180 169 160 170 174 175 183 173 166 159 149 110 72 67 47 43 15 37 64 137 128 73 37 11 234 138 59 57 336 299 332 315 239 217 197 157 191 170 130 333 302 243 239 206 154 157 158 148 158 157 145 146 137 131 122 113 111
263 256 254 256 265 270 272 283 292 296 305 314 312 303 290 287 295 304 307 304 294 295 297 312 335 10 52 210 228 210 200 185 167 161 166 168 171 165 149 157 153 150 128 92 88 42 39 12 65 85 183 103 104 265 128 262 89 345 20 139 303 353 317 254 215 170 154 172 151 125 316 277 251 236 161 150 158 149 149 167 165 152 151 146 137 125 121 115
265 260 253 249 256 263 267 271 282 293 293 301 316 310 293 291 296 293 307 293 288 297 293 305 280 74 81 256 259 207 196 179 167 165 157 157 152 138 131 139 139 144 151 97 89 35 52 61 73 74 23 97 145 274 26 5 60 338 343 35 346 3 289 292 200 154 155 201 130 116 218 259 274 254 171 170 166 154 161 177 173 164 162 156 145 133 127 121
268 268 262 258 263 265 263 259 273 290 285 299 322 319 309 307 283 202 114 144 224 266 268 288 203 112 49 285 279 194 188 180 175 168 157 156 147 131 126 128 121 107 99 88 114 116 118 94 74 81 334 12 68 61 16 349 3 53 31 320 328 175 266 311 23 157 156 217 129 121 205 264 275 237 189 187 174 164 168 180 180 173 169 162 154 144 136 128
263 272 272 269 273 273 268 258 264 279 287 316 330 326 321 162 139 128 134 135 150 179 113 60 174 134 71 274 263 179 198 198 178 169 163 164 157 138 125 115 102 93 93 92 104 124 100 69 62 107 101 42 78 84 44 5 340 352 137 253 270 192 272 318 299 198 152 132 181 187 213 264 269 210 190 193 185 178 175 187 187 179 176 167 160 152 148 141
257 265 272 273 275 279 277 261 255 276 304 337 338 336 70 128 128 127 130 128 133 136 115 73 96 133 214 227 227 227 200 181 173 173 170 160 150 141 125 110 107 105 94 80 83 86 56 52 77 113 69 78 119 95 60 343 299 314 183 234 254 216 242 289 287 262 146 140 200 225 233 248 262 210 191 199 189 186 194 196 191 182 177 171 164 157 160 157
254 260 266 273 279 288 287 263 249 288 329 350 353 41 84 104 114 117 128 137 123 84 43 305 102 133 263 217 191 201 161 163 168 171 169 150 142 144 127 115 128 111 83 48 28 52 35 23 76 70 24 30 157 112 126 230 214 212 194 209 261 251 241 237 261 241 159 165 199 208 239 252 261 245 209 210 192 196 211 202 190 183 173 172 170 165 170 163
253 257 261 268 275 291 298 265 234 280 330 2 70 101 85 72 66 96 145 142 130 114 190 215 164 146 242 217 162 109 124 147 156 167 170 152 146 153 132 122 125 103 89 56 335 124 107 42 58 106 213 214 196 172 191 208 184 183 187 175 202 237 269 245 246 226 167 175 223 210 227 244 250 247 227 219 201 204 220 206 186 186 176 175 174 174 173 161
250 250 255 261 261 280 298 261 211 251 295 119 84 85 87 69 44 297 247 200 214 219 206 184 189 177 96 152 126 117 123 130 131 172 173 162 151 144 114 96 92 64 104 149 214 235 123 125 177 197 210 206 200 203 209 210 201 213 231 232 211 214 268 266 255 255 158 159 241 226 232 247 246 244 232 215 199 207 220 216 202 192 185 182 178 177 166 154
245 244 251 255 252 269 282 229 185 220 240 170 77 50 132 140 144 210 232 248 246 248 264 224 205 225 131 153 154 143 129 100 39 161 169 166 149 141 144 95 102 62 218 156 154 357 126 178 218 220 214 200 201 211 218 224 230 244 248 256 260 234 254 268 257 279 76 184 261 266 265 265 256 249 239 198 188 210 211 208 208 198 192 185 176 171 156 143
241 239 243 245 248 261 250 196 180 205 201 182 193 261 220 88 70 36 164 276 266 241 245 250 237 258 262 168 173 161 114 93 113 195 174 162 150 161 178 115 133 204 211 122 91 156 199 228 232 226 215 201 219 226 216 221 227 236 237 231 257 254 265 297 319 327 15 179 264 306 298 272 264 256 244 203 198 214 210 207 208 196 190 183 175 167 153 149
239 235 235 234 238 245 223 188 173 193 194 188 204 208 173 93 60 25 114 208 294 239 223 233 233 233 215 187 183 174 153 158 164 227 188 160 155 184 149 141 174 189 166 155 161 177 211 244 233 219 205 200 234 251 225 220 225 222 210 193 238 255 253 282 302 303 300 211 261 313 308 275 270 265 250 226 208 212 214 216 215 195 188 182 176 169 158 160
237 232 231 228 224 226 213 186 172 203 201 202 218 196 155 129 77 22 55 194 280 254 214 206 207 210 201 195 183 177 200 190 163 196 189 167 141 162 156 166 176 170 192 196 189 198 217 232 215 191 197 202 218 245 223 211 244 238 201 190 217 238 219 229 272 317 337 339 323 339 317 280 262 255 256 263 210 205 204 202 205 197 186 173 166 168 166 166
232 229 229 222 218 215 199 184 197 214 200 210 225 198 167 161 25 6 30 355 271 277 238 202 200 204 191 180 175 170 194 230 193 174 181 175 154 143 181 179 164 187 206 200 197 223 232 232 177 156 195 208 208 226 212 191 223 268 232 205 210 218 223 235 287 24 3 323 303 79 316 281 276 256 261 295 178 220 214 196 202 192 175 170 168 171 171 168
229 227 224 216 214 200 183 191 211 204 195 221 226 198 182 181 155 250 96 24 279 259 165 181 187 188 180 165 157 135 33 251 228 154 170 180 176 142 168 180 147 200 198 185 203 238 219 204 197 180 190 203 209 227 221 180 176 252 247 206 206 215 228 236 234 54 261 269 281 101 148 274 289 263 248 232 210 226 226 214 213 194 180 182 176 174 171 168
227 224 218 213 207 186 177 192 191 179 188 235 222 188 188 189 188 226 87 22 280 194 141 186 194 171 169 163 152 131 220 214 87 133 164 180 194 122 164 187 166 194 178 145 233 257 166 175 196 195 188 194 201 221 220 169 150 234 246 172 175 202 218 215 169 173 224 258 322 37 121 275 281 262 236 206 210 239 238 227 224 206 197 192 181 177 174 171
225 222 215 211 204 190 180 164 172 181 198 228 192 170 173 181 191 186 91 24 271 129 130 226 164 138 140 160 157 142 241 154 112 200 177 137 188 78 194 200 179 188 177 159 217 272 152 170 185 184 186 198 200 216 196 156 154 239 225 130 129 158 166 137 119 149 299 353 311 276 127 267 272 266 267 171 212 247 245 230 223 209 201 194 186 181 173 170
222 220 214 208 204 199 191 172 175 196 208 193 166 166 162 170 180 92 78 201 258 83 121 148 137 129 116 148 168 146 39 44 120 227 10 98 153 51 191 203 159 179 203 196 209 251 171 188 181 167 181 200 195 212 167 161 187 215 137 89 67 70 73 72 94 93 22 325 237 211 171 236 268 239 121 120 228 242 245 236 222 205 201 194 185 178 168 164
220 217 214 204 199 199 201 207 205 199 194 176 168 167 158 159 150 91 175 215 279 309 76 124 166 164 147 150 179 155 91 38 43 97 57 98 24 21 189 165 83 143 232 272 238 244 300 249 183 154 177 178 144 92 68 170 176 136 90 62 42 25 32 40 57 83 32 272 216 197 188 196 267 267 168 196 222 222 233 242 220 193 194 193 185 177 168 161
218 214 209 202 199 195 196 218 210 189 184 171 158 159 154 126 91 163 202 244 336 201 123 150 188 154 159 159 169 175 122 67 149 143 141 151 64 33 49 63 68 91 295 295 295 316 343 339 239 218 160 121 98 79 13 15 113 108 88 85 66 351 13 18 4 57 230 253 210 198 192 188 232 262 223 228 245 232 220 223 211 192 192 192 185 178 170 163
216 213 208 203 201 195 195 203 187 179 186 170 151 154 159 123 205 219 213 60 332 204 153 173 193 167 170 170 173 171 144 133 177 164 159 158 174 184 189 189 170 164 245 232 253 321 304 238 218 317 284 135 114 97 12 358 36 94 108 112 122 283 3 358 312 152 227 259 248 197 183 197 236 254 255 254 258 250 233 225 207 189 188 187 181 177 171 165
216 213 208 205 201 197 199 193 176 177 185 173 155 147 151 169 204 216 213 197 207 201 139 147 172 165 166 171 183 165 132 155 176 170 164 148 179 209 224 227 190 181 202 188 192 214 272 294 239 168 284 191 159 162 183 240 176 149 143 142 157 171 183 251 247 257 253 269 283 192 164 223 271 265 248 251 256 256 254 243 207 184 184 183 176 171 165 167
217 212 207 206 204 203 199 188 179 178 177 170 160 150 168 192 207 206 217 222 212 103 112 133 138 152 168 179 188 164 149 197 172 160 156 148 177 216 228 240 217 195 93 145 186 182 212 283 206 181 212 189 186 192 170 141 159 180 154 139 160 161 176 215 207 224 252 276 290 249 164 198 214 242 242 247 267 289 297 247 188 171 173 163 155 157 162 170
217 211 208 205 204 204 197 189 188 180 170 164 169 180 182 196 204 207 219 217 198 92 76 123 121 139 194 229 225 181 165 192 173 156 167 174 189 203 199 212 205 179 131 175 215 166 199 259 224 192 170 170 189 196 126 113 150 223 120 115 183 182 181 226 207 183 192 294 280 224 219 216 210 259 263 264 294 311 352 112 142 142 145 140 149 163 168 172
212 209 207 201 201 202 194 191 191 181 169 161 181 192 197 205 203 203 210 192 188 178 99 118 124 147 201 213 228 211 168 114 163 167 197 200 210 206 199 205 192 186 184 181 179 153 184 275 267 147 72 180 192 178 144 159 179 172 144 176 198 169 164 221 280 43 84 274 259 197 244 288 303 272 260 106 297 292 343 151 157 155 150 153 168 172 172 176
205 204 203 200 202 199 192 191 189 183 175 175 191 194 200 214 216 194 182 173 183 171 129 170 188 165 187 196 200 207 187 106 167 180 186 194 229 209 200 212 187 194 202 182 183 194 170 252 280 133 177 247 223 113 96 273 142 131 185 199 139 61 95 139 261 344 42 261 266 203 231 257 239 260 282 89 244 253 240 202 170 162 167 173 181 178 179 178
205 201 202 206 203 195 190 188 184 183 187 193 200 205 202 214 218 197 183 164 170 174 182 215 205 162 179 196 187 185 183 170 179 186 180 190 241 204 186 198 193 196 202 187 208 243 168 213 282 105 181 277 15 110 86 348 93 131 194 195 126 124 212 135 179 234 197 251 283 254 238 230 204 219 218 189 220 228 226 205 184 186 186 186 185 180 180 174
201 189 222 211 201 193 189 186 181 182 204 201 203 212 212 217 213 197 194 186 180 186 204 220 214 189 194 187 168 175 188 186 172 176 187 193 232 206 180 186 197 194 192 181 195 228 170 204 263 335 217 255 33 143 175 210 283 55 80 184 131 138 173 168 178 177 169 234 279 299 285 240 216 200 182 197 214 211 203 197 200 200 193 189 184 179 180 179
190 184 251 204 196 191 185 183 184 193 204 203 207 213 219 224 211 198 209 213 200 189 208 216 208 207 210 185 168 174 189 191 175 181 206 193 211 234 189 177 176 183 185 187 194 190 158 218 233 293 328 183 185 202 187 184 182 159 155 179 188 128 111 184 218 150 143 189 235 269 279 262 233 191 189 200 210 205 195 195 204 204 194 191 186 180 182 183
177 234 238 186 188 183 176 179 198 204 203 207 217 225 228 236 201 201 214 222 227 227 207 207 203 205 205 189 181 176 176 188 183 188 216 203 204 234 199 174 165 163 169 188 202 193 187 205 173 176 232 205 222 245 212 190 182 177 183 190 188 171 139 188 251 205 156 198 195 200 268 267 235 183 205 208 210 205 196 196 202 199 193 193 189 184 185 184
198 240 188 176 179 171 164 190 206 189 206 208 214 227 225 195 205 200 208 223 237 252 254 211 208 207 204 193 187 172 167 182 190 193 215 213 208 214 199 182 168 160 157 179 204 195 148 126 153 186 208 209 243 280 264 169 147 138 179 191 184 187 176 186 228 217 171 232 212 138 273 276 262 170 243 239 233 222 202 197 200 199 194 191 187 184 185 187
218 240 176 171 174 166 162 204 192 192 213 204 215 228 214 210 216 194 194 210 225 232 228 233 204 205 214 199 178 175 177 185 196 200 213 219 213 210 194 181 164 161 164 171 195 181 103 137 182 219 322 344 321 330 9 37 78 128 216 188 183 207 202 191 210 186 175 225 200 161 257 268 317 332 303 301 290 254 203 198 197 195 189 184 184 183 183 184
212 225 21 173 175 171 176 200 188 199 206 197 208 217 218 222 208 197 196 201 211 218 220 226 199 192 219 196 167 178 185 193 208 205 205 211 214 225 193 182 168 165 179 180 175 173 177 179 156 154 260 322 335 327 340 350 172 207 227 192 192 207 204 220 254 140 235 223 176 191 246 247 291 322 333 348 344 345 223 206 194 186 183 184 185 181 180 178
225 194 25 182 180 180 198 204 193 200 200 200 205 207 214 220 206 207 206 202 209 212 218 227 209 176 179 183 157 161 192 207 220 211 206 209 214 1 331 201 184 181 189 181 167 168 179 174 159 179 215 230 231 219 204 190 180 211 208 181 196 201 196 208 213 208 239 220 169 208 243 249 318 326 324 332 339 332 280 203 191 194 189 182 179 177 177 176
248 204 177 185 191 203 218 199 197 204 199 201 206 204 208 212 208 205 204 206 211 209 221 233 208 181 188 200 200 211 218 222 210 190 204 205 208 317 346 290 198 187 154 140 149 153 152 183 191 195 206 221 231 229 153 141 153 202 203 190 200 205 198 198 209 221 224 182 204 226 235 256 275 277 272 267 242 248 254 198 199 209 194 182 180 179 179 180
247 227 177 164 196 230 233 235 231 230 206 196 194 194 203 210 211 193 195 209 209 204 217 227 207 195 198 203 213 219 220 216 148 162 198 195 215 294 344 36 40 37 78 131 149 125 111 199 210 207 216 228 232 218 152 158 178 198 199 198 203 204 197 196 214 222 188 162 242 227 192 240 248 214 224 239 216 226 235 214 214 209 191 182 173 171 177 180
236 234 182 176 175 206 225 230 222 234 235 204 185 181 196 206 208 192 193 210 210 202 208 215 216 215 208 204 209 215 214 213 209 210 204 182 153 13 2 12 26 41 55 110 113 83 135 210 217 209 228 240 238 209 167 180 195 196 197 203 201 198 199 202 216 221 188 203 242 208 168 228 239 204 214 220 200 212 217 208 201 176 170 169 161 170 180 180
242 273 254 219 204 186 198 204 192 209 227 215 199 198 194 201 208 205 193 193 207 207 201 208 216 216 214 208 203 207 208 207 216 218 200 180 169 154 149 265 225 71 74 132 148 94 171 211 202 192 224 244 241 221 182 187 203 208 207 209 204 201 203 203 215 220 207 223 239 213 202 242 238 200 218 216 201 208 191 157 155 151 163 168 170 182 185 182
238 266 291 286 251 190 170 169 163 185 207 201 207 217 207 206 209 209 197 184 197 202 199 213 220 214 211 210 206 216 216 208 217 219 190 173 191 190 189 199 173 106 110 154 149 233 199 188 115 146 212 248 242 222 197 192 203 218 224 221 216 212 207 207 219 219 212 232 240 230 251 259 228 173 218 217 159 147 128 162 182 173 172 170 176 187 185 186
248 288 110 305 275 190 164 172 165 178 195 185 191 208 218 224 217 208 209 203 202 200 196 213 223 217 210 212 212 222 224 217 223 226 191 180 200 201 200 196 152 139 168 173 151 169 186 192 74 126 203 248 235 205 209 213 213 235 245 236 223 210 202 211 220 214 206 226 236 232 247 252 208 127 108 99 138 157 174 191 187 173 171 167 176 187 187 192
247 294 171 232 272 202 180 188 182 194 203 189 191 191 201 229 223 201 214 221 214 214 206 214 223 216 204 214 216 223 229 225 228 235 189 180 197 186 185 180 156 156 170 170 152 153 165 176 169 157 213 252 234 182 193 209 218 240 247 238 220 199 199 215 223 220 213 215 221 223 233 237 182 148 168 166 176 188 196 195 172 160 167 173 183 186 190 202